This is the latest recevied weather packets stored in our database for station/object DG1ROH. If no packets are shown the sender has not sent any weather packets the latest 10 day(s).
| Time | Temp. | Humidity | Pressure | Rain* | Wind** | Luminosity | Snow |
|---|---|---|---|---|---|---|---|
| 1778240293 | 13.33° C | 63% | 1019.9 hPa | 0 mm | - | 299 W/m² | - |
| 1778240171 | 13.89° C | 65% | 1019.9 hPa | 0 mm | - | 315 W/m² | - |
| 1778240048 | 13.33° C | 65% | 1019.9 hPa | 0 mm | - | 295 W/m² | - |
| 1778239927 | 13.33° C | 65% | 1019.8 hPa | 0 mm | - | 322 W/m² | - |
| 1778239803 | 13.33° C | 63% | 1019.9 hPa | 0 mm | - | 285 W/m² | - |
| 1778239682 | 13.33° C | 64% | 1019.9 hPa | 0 mm | - | 262 W/m² | - |
| 1778239563 | 13.33° C | 65% | 1019.9 hPa | 0 mm | - | 246 W/m² | - |
| 1778239443 | 13.33° C | 67% | 1019.9 hPa | 0 mm | - | 255 W/m² | - |
| 1778239322 | 13.33° C | 63% | 1019.9 hPa | 0 mm | - | 283 W/m² | - |
| 1778239202 | 13.33° C | 70% | 1019.9 hPa | 0 mm | - | 308 W/m² | - |
| 1778239083 | 13.33° C | 63% | 1019.9 hPa | 0 mm | - | 322 W/m² | - |
| 1778238962 | 13.33° C | 66% | 1019.9 hPa | 0 mm | - | 278 W/m² | - |
| 1778238841 | 13.33° C | 63% | 1020 hPa | 0 mm | - | 278 W/m² | - |
| 1778238722 | 13.89° C | 65% | 1019.9 hPa | 0 mm | - | 285 W/m² | - |
| 1778238602 | 13.89° C | 65% | 1019.9 hPa | 0 mm | - | 301 W/m² | - |
| 1778238481 | 13.89° C | 63% | 1019.9 hPa | 0 mm | - | 325 W/m² | - |
| 1778238361 | 13.89° C | 63% | 1019.8 hPa | 0 mm | - | 325 W/m² | - |
| 1778238242 | 13.33° C | 63% | 1019.9 hPa | 0 mm | - | 330 W/m² | - |
| 1778238121 | 13.33° C | 62% | 1019.9 hPa | 0 mm | - | 295 W/m² | - |
| 1778238001 | 13.89° C | 63% | 1019.9 hPa | 0 mm | - | 292 W/m² | - |
| 1778237882 | 13.89° C | 63% | 1020 hPa | 0 mm | - | 332 W/m² | - |
| 1778237761 | 13.89° C | 65% | 1019.9 hPa | 0 mm | - | 408 W/m² | - |
| 1778237642 | 13.33° C | 62% | 1019.9 hPa | 0 mm | - | 348 W/m² | - |
| 1778237521 | 13.89° C | 65% | 1019.9 hPa | 0 mm | - | 348 W/m² | - |
| 1778237401 | 14.44° C | 62% | 1020 hPa | 0 mm | - | 387 W/m² | - |
* Rain latest hour (hover to see other rain measurements)
** Current wind speed in m/s (hover to see current wind gust speed)